owner,sensor,date,latitude,longitude,vertical_datum,wind_speed,wind_to_direction,wind_speed_of_gust,qcFlag 
TABS,ioos:station:wmo:42043:1,2014-11-01T00:00:00Z,28.9818,-94.9186,4.0,8.136860574,11.26826705,10.49,'11111222,11111222,11111222' 
TABS,ioos:station:wmo:42043:1,2014-11-01T00:30:00Z,28.9818,-94.9186,4.0,9.476338956,11.38084079,12.76,'11111222,11111222,11111222' 
TABS,ioos:station:wmo:42043:1,2014-11-01T01:00:00Z,28.9818,-94.9186,4.0,9.295181547,14.96293654,12.16,'11111222,11111222,11111222' 
TABS,ioos:station:wmo:42043:1,2014-11-01T01:30:00Z,28.9818,-94.9186,4.0,9.604212617,9.589587425,12.92,'11111222,11111222,11111222' 
TABS,ioos:station:wmo:42043:1,2014-11-01T02:00:00Z,28.9818,-94.9186,4.0,9.310021482,15.06595686,12.4,'11111222,11111222,11111222' 
TABS,ioos:station:wmo:42043:1,2014-11-01T02:30:00Z,28.9818,-94.9186,4.0,9.528063812,23.76684167,12.49,'11111222,11111222,11111222' 
TABS,ioos:station:wmo:42043:1,2014-11-01T03:00:00Z,28.9818,-94.9186,4.0,9.579352797,26.40428701,12.22,'11111222,11111222,11111222' 
TABS,ioos:station:wmo:42043:1,2014-11-01T03:30:00Z,28.9818,-94.9186,4.0,9.72823725,32.66062589,13.22,'11111222,11111222,11111222' 
TABS,ioos:station:wmo:42043:1,2014-11-01T04:00:00Z,28.9818,-94.9186,4.0,9.85905675,31.90037531,12.78,'11111222,11111222,11111222' 
TABS,ioos:station:wmo:42043:1,2014-11-01T04:30:00Z,28.9818,-94.9186,4.0,9.94525515,35.9593083,12.59,'11111222,11111222,11111222' 
TABS,ioos:station:wmo:42043:1,2014-11-01T05:00:00Z,28.9818,-94.9186,4.0,9.525423875,40.52922293,13.07,'11111222,11111222,11111222' 
TABS,ioos:station:wmo:42043:1,2014-11-01T05:30:00Z,28.9818,-94.9186,4.0,8.642557492,41.52862731,11.53,'11111222,11111222,11111222' 
TABS,ioos:station:wmo:42043:1,2014-11-01T06:00:00Z,28.9818,-94.9186,4.0,8.68834852,46.9585438,11.29,'11111222,11111222,11111222' 
TABS,ioos:station:wmo:42043:1,2014-11-01T06:30:00Z,28.9818,-94.9186,4.0,8.24878779,52.33790445,11.09,'11111222,11111222,11111222' 
TABS,ioos:station:wmo:42043:1,2014-11-01T07:00:00Z,28.9818,-94.9186,4.0,8.45378022,49.41308188,11.27,'11111222,11111222,11111222' 
TABS,ioos:station:wmo:42043:1,2014-11-01T07:30:00Z,28.9818,-94.9186,4.0,7.748083634,53.39598195,11.09,'11111222,11111222,11111222' 
TABS,ioos:station:wmo:42043:1,2014-11-01T08:00:00Z,28.9818,-94.9186,4.0,8.138679254,58.10620528,11.01,'11111222,11111222,11111222' 
TABS,ioos:station:wmo:42043:1,2014-11-01T08:30:00Z,28.9818,-94.9186,4.0,7.569372497,55.65877003,10.7,'11111222,11111222,11111222' 
TABS,ioos:station:wmo:42043:1,2014-11-01T09:00:00Z,28.9818,-94.9186,4.0,7.50032666,57.13591255,10.65,'11111222,11111222,11111222' 
TABS,ioos:station:wmo:42043:1,2014-11-01T09:30:00Z,28.9818,-94.9186,4.0,7.255480687,56.35339434,10.74,'11111222,11111222,11111222' 
TABS,ioos:station:wmo:42043:1,2014-11-01T10:00:00Z,28.9818,-94.9186,4.0,7.799756406,40.73643969,10.02,'11111222,11111222,11111222' 
TABS,ioos:station:wmo:42043:1,2014-11-01T10:30:00Z,28.9818,-94.9186,4.0,7.863141866,44.69053815,10.77,'11111222,11111222,11111222' 
TABS,ioos:station:wmo:42043:1,2014-11-01T11:00:00Z,28.9818,-94.9186,4.0,7.47532608,43.96988295,10.31,'11111222,11111222,11111222' 
TABS,ioos:station:wmo:42043:1,2014-11-01T11:30:00Z,28.9818,-94.9186,4.0,7.301136898,51.45016287,10.27,'11111222,11111222,11111222' 
TABS,ioos:station:wmo:42043:1,2014-11-01T12:00:00Z,28.9818,-94.9186,4.0,8.141750426,43.45690783,11.73,'11111222,11111222,11111222' 
TABS,ioos:station:wmo:42043:1,2014-11-01T12:30:00Z,28.9818,-94.9186,4.0,8.32452401,46.21648617,11.32,'11111222,11111222,11111222' 
TABS,ioos:station:wmo:42043:1,2014-11-01T13:00:00Z,28.9818,-94.9186,4.0,8.394027639,44.27568352,11.14,'11111222,11111222,11111222' 
TABS,ioos:station:wmo:42043:1,2014-11-01T13:30:00Z,28.9818,-94.9186,4.0,8.748325554,57.03619242,11.73,'11111222,11111222,11111222' 
TABS,ioos:station:wmo:42043:1,2014-11-01T14:00:00Z,28.9818,-94.9186,4.0,8.646294004,67.70600206,12.57,'11111222,11111222,11111222' 
TABS,ioos:station:wmo:42043:1,2014-11-01T14:30:00Z,28.9818,-94.9186,4.0,8.355178035,81.8113079,11.68,'11111222,11111222,11111222' 
TABS,ioos:station:wmo:42043:1,2014-11-01T15:00:00Z,28.9818,-94.9186,4.0,8.149705516,72.20941671,10.59,'11111222,11111222,11111222' 
TABS,ioos:station:wmo:42043:1,2014-11-01T15:30:00Z,28.9818,-94.9186,4.0,7.929924338,66.27923898,10.6,'11111222,11111222,11111222' 
TABS,ioos:station:wmo:42043:1,2014-11-01T16:00:00Z,28.9818,-94.9186,4.0,7.424284477,64.12486561,10.64,'11111222,11111222,11111222' 
TABS,ioos:station:wmo:42043:1,2014-11-01T16:30:00Z,28.9818,-94.9186,4.0,8.200274386,77.96340982,10.98,'11111222,11111222,11111222' 
TABS,ioos:station:wmo:42043:1,2014-11-01T17:00:00Z,28.9818,-94.9186,4.0,7.719753882,77.96187118,10.42,'11111222,11111222,11111222' 
TABS,ioos:station:wmo:42043:1,2014-11-01T17:30:00Z,28.9818,-94.9186,4.0,6.897137087,72.01126037,9.62,'11111222,11111222,11111222' 
TABS,ioos:station:wmo:42043:1,2014-11-01T18:00:00Z,28.9818,-94.9186,4.0,5.903769982,74.17419722,9.2,'11111222,11111222,11111222' 
TABS,ioos:station:wmo:42043:1,2014-11-01T18:30:00Z,28.9818,-94.9186,4.0,5.916502345,69.72694088,8.35,'11111222,11111222,11111222' 
TABS,ioos:station:wmo:42043:1,2014-11-01T19:00:00Z,28.9818,-94.9186,4.0,4.870564649,59.116593,7.12,'11111222,11111222,11111222' 
TABS,ioos:station:wmo:42043:1,2014-11-01T19:30:00Z,28.9818,-94.9186,4.0,5.176118237,58.42840922,7.34,'11111222,11111222,11111222' 
TABS,ioos:station:wmo:42043:1,2014-11-01T20:00:00Z,28.9818,-94.9186,4.0,5.419086639,66.50949977,7.72,'11111222,11111222,11111222' 
TABS,ioos:station:wmo:42043:1,2014-11-01T20:30:00Z,28.9818,-94.9186,4.0,5.246074723,52.82396078,7.59,'11111222,11111222,11111222' 
TABS,ioos:station:wmo:42043:1,2014-11-01T21:00:00Z,28.9818,-94.9186,4.0,5.390704963,59.81971903,7.98,'11111222,11111222,11111222' 
TABS,ioos:station:wmo:42043:1,2014-11-01T21:30:00Z,28.9818,-94.9186,4.0,4.784579396,61.13114262,6.85,'11111222,11111222,11111222' 
TABS,ioos:station:wmo:42043:1,2014-11-01T22:00:00Z,28.9818,-94.9186,4.0,4.613902903,65.54540422,6.56,'11111222,11111222,11111222' 
TABS,ioos:station:wmo:42043:1,2014-11-01T22:30:00Z,28.9818,-94.9186,4.0,5.215639942,72.71112816,8.46,'11111222,11111222,11111222' 
TABS,ioos:station:wmo:42043:1,2014-11-01T23:00:00Z,28.9818,-94.9186,4.0,5.353923795,77.15739569,7.87,'11111222,11111222,11111222' 
TABS,ioos:station:wmo:42043:1,2014-11-01T23:30:00Z,28.9818,-94.9186,4.0,5.019770911,77.45842045,7.48,'11111222,11111222,11111222' 
TABS,ioos:station:wmo:42043:1,2014-11-02T00:00:00Z,28.9818,-94.9186,4.0,4.579617888,78.02718334,6.25,'11111222,11111222,11111222' 
TABS,ioos:station:wmo:42043:1,2014-11-02T00:30:00Z,28.9818,-94.9186,4.0,4.933568688,66.08431275,7.01,'11111222,11111222,11111222' 
TABS,ioos:station:wmo:42043:1,2014-11-02T01:00:00Z,28.9818,-94.9186,4.0,4.747209707,73.85527805,7.01,'11111222,11111222,11111222' 
TABS,ioos:station:wmo:42043:1,2014-11-02T01:30:00Z,28.9818,-94.9186,4.0,4.6992127,71.25622065,7.06,'11111222,11111222,11111222' 
TABS,ioos:station:wmo:42043:1,2014-11-02T02:00:00Z,28.9818,-94.9186,4.0,4.509478906,80.68349433,6.82,'11111222,11111222,11111222' 
TABS,ioos:station:wmo:42043:1,2014-11-02T02:30:00Z,28.9818,-94.9186,4.0,4.759464256,68.55589456,6.92,'11111222,11111222,11111222' 
TABS,ioos:station:wmo:42043:1,2014-11-02T03:00:00Z,28.9818,-94.9186,4.0,4.267798027,80.55934974,6.06,'11111222,11111222,11111222' 
TABS,ioos:station:wmo:42043:1,2014-11-02T03:30:00Z,28.9818,-94.9186,4.0,4.970814823,88.96214557,7.3,'11111222,11111222,11111222' 
TABS,ioos:station:wmo:42043:1,2014-11-02T04:00:00Z,28.9818,-94.9186,4.0,5.054463374,98.41906411,7.53,'11111222,11111222,11111222' 
TABS,ioos:station:wmo:42043:1,2014-11-02T04:30:00Z,28.9818,-94.9186,4.0,4.995087587,101.1978504,6.93,'11111222,11111222,11111222' 
TABS,ioos:station:wmo:42043:1,2014-11-02T05:00:00Z,28.9818,-94.9186,4.0,5.314978833,97.45969712,8.27,'11111222,11111222,11111222' 
TABS,ioos:station:wmo:42043:1,2014-11-02T05:30:00Z,28.9818,-94.9186,4.0,4.695742753,100.3052433,7.19,'11111222,11111222,11111222' 
TABS,ioos:station:wmo:42043:1,2014-11-02T06:00:00Z,28.9818,-94.9186,4.0,4.96649776,99.38685789,7.53,'11111222,11111222,11111222' 
TABS,ioos:station:wmo:42043:1,2014-11-02T06:30:00Z,28.9818,-94.9186,4.0,4.483257744,101.0596914,6.68,'11111222,11111222,11111222' 
TABS,ioos:station:wmo:42043:1,2014-11-02T07:00:00Z,28.9818,-94.9186,4.0,4.516691267,110.8830546,7.02,'11111222,11111222,11111222' 
TABS,ioos:station:wmo:42043:1,2014-11-02T07:30:00Z,28.9818,-94.9186,4.0,4.295404521,112.4458019,6.49,'11111222,11111222,11111222' 
TABS,ioos:station:wmo:42043:1,2014-11-02T08:00:00Z,28.9818,-94.9186,4.0,4.112626898,105.6587296,5.84,'11111222,11111222,11111222' 
TABS,ioos:station:wmo:42043:1,2014-11-02T08:30:00Z,28.9818,-94.9186,4.0,4.44994382,110.7975346,6.93,'11111222,11111222,11111222' 
TABS,ioos:station:wmo:42043:1,2014-11-02T09:00:00Z,28.9818,-94.9186,4.0,5.383400412,109.6470397,7.41,'11111222,11111222,11111222' 
TABS,ioos:station:wmo:42043:1,2014-11-02T09:30:00Z,28.9818,-94.9186,4.0,5.192427178,117.1575919,7.33,'11111222,11111222,11111222' 
TABS,ioos:station:wmo:42043:1,2014-11-02T10:00:00Z,28.9818,-94.9186,4.0,4.846627694,120.639717,7.31,'11111222,11111222,11111222' 
TABS,ioos:station:wmo:42043:1,2014-11-02T10:30:00Z,28.9818,-94.9186,4.0,5.453228402,106.0756687,7.37,'11111222,11111222,11111222' 
TABS,ioos:station:wmo:42043:1,2014-11-02T11:00:00Z,28.9818,-94.9186,4.0,5.344698308,119.971276,7.69,'11111222,11111222,11111222' 
TABS,ioos:station:wmo:42043:1,2014-11-02T11:30:00Z,28.9818,-94.9186,4.0,5.885346209,116.434797,8.7,'11111222,11111222,11111222' 
TABS,ioos:station:wmo:42043:1,2014-11-02T12:00:00Z,28.9818,-94.9186,4.0,5.538591879,114.9922578,8.08,'11111222,11111222,11111222' 
TABS,ioos:station:wmo:42043:1,2014-11-02T12:30:00Z,28.9818,-94.9186,4.0,5.989232004,112.583439,8.28,'11111222,11111222,11111222' 
TABS,ioos:station:wmo:42043:1,2014-11-02T13:00:00Z,28.9818,-94.9186,4.0,5.648336038,116.3839517,8.14,'11111222,11111222,11111222' 
TABS,ioos:station:wmo:42043:1,2014-11-02T13:30:00Z,28.9818,-94.9186,4.0,5.908341561,114.1794715,8.65,'11111222,11111222,11111222' 
TABS,ioos:station:wmo:42043:1,2014-11-02T14:00:00Z,28.9818,-94.9186,4.0,5.893182502,113.6074754,8.36,'11111222,11111222,11111222' 
TABS,ioos:station:wmo:42043:1,2014-11-02T14:30:00Z,28.9818,-94.9186,4.0,5.603400753,118.8066676,8.75,'11111222,11111222,11111222' 
TABS,ioos:station:wmo:42043:1,2014-11-02T15:00:00Z,28.9818,-94.9186,4.0,6.119771238,115.1416885,8.64,'11111222,11111222,11111222' 
TABS,ioos:station:wmo:42043:1,2014-11-02T15:30:00Z,28.9818,-94.9186,4.0,5.45619831,124.6224376,7.74,'11111222,11111222,11111222' 
TABS,ioos:station:wmo:42043:1,2014-11-02T16:00:00Z,28.9818,-94.9186,4.0,5.768994713,123.3323165,8.68,'11111222,11111222,11111222' 
TABS,ioos:station:wmo:42043:1,2014-11-02T16:30:00Z,28.9818,-94.9186,4.0,5.799456871,123.9644183,8.78,'11111222,11111222,11111222' 
TABS,ioos:station:wmo:42043:1,2014-11-02T17:00:00Z,28.9818,-94.9186,4.0,5.857798221,114.5090776,7.76,'11111222,11111222,11111222' 
TABS,ioos:station:wmo:42043:1,2014-11-02T17:30:00Z,28.9818,-94.9186,4.0,5.497708614,122.823236,7.51,'11111222,11111222,11111222' 
TABS,ioos:station:wmo:42043:1,2014-11-02T18:00:00Z,28.9818,-94.9186,4.0,5.204075326,126.5619574,7.11,'11111222,11111222,11111222' 
TABS,ioos:station:wmo:42043:1,2014-11-02T18:30:00Z,28.9818,-94.9186,4.0,5.26459875,124.4752324,7.47,'11111222,11111222,11111222' 
TABS,ioos:station:wmo:42043:1,2014-11-02T19:00:00Z,28.9818,-94.9186,4.0,5.212110897,126.4964748,7.62,'11111222,11111222,11111222' 
TABS,ioos:station:wmo:42043:1,2014-11-02T19:30:00Z,28.9818,-94.9186,4.0,5.441837925,124.216043,7.69,'11111222,11111222,11111222' 
TABS,ioos:station:wmo:42043:1,2014-11-02T20:00:00Z,28.9818,-94.9186,4.0,6.062515979,120.7534006,7.73,'11111222,11111222,11111222' 
TABS,ioos:station:wmo:42043:1,2014-11-02T20:30:00Z,28.9818,-94.9186,4.0,5.456005865,116.56541,7.65,'11111222,11111222,11111222' 
TABS,ioos:station:wmo:42043:1,2014-11-02T21:00:00Z,28.9818,-94.9186,4.0,6.12742197,125.6358453,7.72,'11111222,11111222,11111222' 
TABS,ioos:station:wmo:42043:1,2014-11-02T21:30:00Z,28.9818,-94.9186,4.0,6.562994743,124.6347579,8.54,'11111222,11111222,11111222' 
TABS,ioos:station:wmo:42043:1,2014-11-02T22:00:00Z,28.9818,-94.9186,4.0,6.232896598,128.6170701,8.14,'11111222,11111222,11111222' 
TABS,ioos:station:wmo:42043:1,2014-11-02T22:30:00Z,28.9818,-94.9186,4.0,5.742003135,126.9301024,7.76,'11111222,11111222,11111222' 
TABS,ioos:station:wmo:42043:1,2014-11-02T23:00:00Z,28.9818,-94.9186,4.0,5.489162049,124.3852192,7.36,'11111222,11111222,11111222' 
TABS,ioos:station:wmo:42043:1,2014-11-02T23:30:00Z,28.9818,-94.9186,4.0,5.58906969,122.951152,8.07,'11111222,11111222,11111222' 
TABS,ioos:station:wmo:42043:1,2014-11-03T00:00:00Z,28.9818,-94.9186,4.0,5.575168159,124.4030053,7.18,'11111222,11111222,11111222' 
TABS,ioos:station:wmo:42043:1,2014-11-03T00:30:00Z,28.9818,-94.9186,4.0,6.248687862,121.9862906,9.19,'11111222,11111222,11111222' 
TABS,ioos:station:wmo:42043:1,2014-11-03T01:00:00Z,28.9818,-94.9186,4.0,6.462607833,129.0339813,8.56,'11111222,11111222,11111222' 
TABS,ioos:station:wmo:42043:1,2014-11-03T01:30:00Z,28.9818,-94.9186,4.0,6.769320498,133.5039046,8.81,'11111222,11111222,11111222' 
TABS,ioos:station:wmo:42043:1,2014-11-03T02:00:00Z,28.9818,-94.9186,4.0,6.611051354,132.4255865,9.19,'11111222,11111222,11111222' 
TABS,ioos:station:wmo:42043:1,2014-11-03T02:30:00Z,28.9818,-94.9186,4.0,6.819384136,133.3365946,8.63,'11111222,11111222,11111222' 
TABS,ioos:station:wmo:42043:1,2014-11-03T03:00:00Z,28.9818,-94.9186,4.0,7.224465378,142.4800611,8.87,'11111222,11111222,11111222' 
TABS,ioos:station:wmo:42043:1,2014-11-03T03:30:00Z,28.9818,-94.9186,4.0,7.052524371,142.4317063,9.61,'11111222,11111222,11111222' 
TABS,ioos:station:wmo:42043:1,2014-11-03T04:00:00Z,28.9818,-94.9186,4.0,7.162038816,147.1977672,10.68,'11111222,11111222,11111222' 
TABS,ioos:station:wmo:42043:1,2014-11-03T04:30:00Z,28.9818,-94.9186,4.0,6.753702688,146.7808119,9.39,'11111222,11111222,11111222' 
TABS,ioos:station:wmo:42043:1,2014-11-03T05:00:00Z,28.9818,-94.9186,4.0,7.076114753,164.8445496,9.51,'11111222,11111222,11111222' 
TABS,ioos:station:wmo:42043:1,2014-11-03T05:30:00Z,28.9818,-94.9186,4.0,6.160146102,161.7417795,8.02,'11111222,11111222,11111222' 
TABS,ioos:station:wmo:42043:1,2014-11-03T06:00:00Z,28.9818,-94.9186,4.0,7.760644303,151.1894841,9.78,'11111222,11111222,11111222' 
TABS,ioos:station:wmo:42043:1,2014-11-03T06:30:00Z,28.9818,-94.9186,4.0,6.860852717,157.0977448,9.11,'11111222,11111222,11111222' 
TABS,ioos:station:wmo:42043:1,2014-11-03T07:00:00Z,28.9818,-94.9186,4.0,7.499819998,153.6402139,9.84,'11111222,11111222,11111222' 
TABS,ioos:station:wmo:42043:1,2014-11-03T07:30:00Z,28.9818,-94.9186,4.0,7.375635566,155.6591774,9.88,'11111222,11111222,11111222' 
TABS,ioos:station:wmo:42043:1,2014-11-03T08:00:00Z,28.9818,-94.9186,4.0,7.337145221,169.3182187,9.78,'11111222,11111222,11111222' 
TABS,ioos:station:wmo:42043:1,2014-11-03T08:30:00Z,28.9818,-94.9186,4.0,7.59623591,160.945143,10.19,'11111222,11111222,11111222' 
TABS,ioos:station:wmo:42043:1,2014-11-03T09:00:00Z,28.9818,-94.9186,4.0,7.479090854,159.820799,9.38,'11111222,11111222,11111222' 
TABS,ioos:station:wmo:42043:1,2014-11-03T09:30:00Z,28.9818,-94.9186,4.0,6.897013847,154.4012043,9.96,'11111222,11111222,11111222' 
TABS,ioos:station:wmo:42043:1,2014-11-03T10:00:00Z,28.9818,-94.9186,4.0,7.229474393,177.0665733,9.23,'11111222,11111222,11111222' 
TABS,ioos:station:wmo:42043:1,2014-11-03T10:30:00Z,28.9818,-94.9186,4.0,6.220651091,173.4464346,8.03,'11111222,11111222,11111222' 
TABS,ioos:station:wmo:42043:1,2014-11-03T11:00:00Z,28.9818,-94.9186,4.0,7.223351023,160.7626162,9.13,'11111222,11111222,11111222' 
TABS,ioos:station:wmo:42043:1,2014-11-03T11:30:00Z,28.9818,-94.9186,4.0,5.268016705,166.3860595,6.79,'11111222,11111222,11111222' 
TABS,ioos:station:wmo:42043:1,2014-11-03T12:00:00Z,28.9818,-94.9186,4.0,5.707057035,159.0564513,7.31,'11111222,11111222,11111222' 
TABS,ioos:station:wmo:42043:1,2014-11-03T12:30:00Z,28.9818,-94.9186,4.0,7.209022125,156.2798704,9.2,'11111222,11111222,11111222' 
TABS,ioos:station:wmo:42043:1,2014-11-03T13:00:00Z,28.9818,-94.9186,4.0,5.722490716,160.0770296,7.25,'11111222,11111222,11111222' 
TABS,ioos:station:wmo:42043:1,2014-11-03T13:30:00Z,28.9818,-94.9186,4.0,5.282660315,135.8439657,7.29,'11111222,11111222,11111222' 
TABS,ioos:station:wmo:42043:1,2014-11-03T14:00:00Z,28.9818,-94.9186,4.0,6.303657668,136.864499,8.02,'11111222,11111222,11111222' 
TABS,ioos:station:wmo:42043:1,2014-11-03T14:30:00Z,28.9818,-94.9186,4.0,6.787761045,139.481411,8.63,'11111222,11111222,11111222' 
TABS,ioos:station:wmo:42043:1,2014-11-03T15:00:00Z,28.9818,-94.9186,4.0,6.860415439,150.4832956,9.15,'11111222,11111222,11111222' 
TABS,ioos:station:wmo:42043:1,2014-11-03T15:30:00Z,28.9818,-94.9186,4.0,7.097386843,151.3769321,9.15,'11111222,11111222,11111222' 
TABS,ioos:station:wmo:42043:1,2014-11-03T16:00:00Z,28.9818,-94.9186,4.0,5.533760024,147.1717454,7.56,'11111222,11111222,11111222' 
TABS,ioos:station:wmo:42043:1,2014-11-03T16:30:00Z,28.9818,-94.9186,4.0,7.205692194,146.6630773,9.19,'11111222,11111222,11111222' 
TABS,ioos:station:wmo:42043:1,2014-11-03T17:00:00Z,28.9818,-94.9186,4.0,6.323701448,145.9584108,8.14,'11111222,11111222,11111222' 
TABS,ioos:station:wmo:42043:1,2014-11-03T17:30:00Z,28.9818,-94.9186,4.0,6.110057283,140.5789389,7.97,'11111222,11111222,11111222' 
TABS,ioos:station:wmo:42043:1,2014-11-03T18:00:00Z,28.9818,-94.9186,4.0,7.023595945,156.6838482,8.96,'11111222,11111222,11111222' 
TABS,ioos:station:wmo:42043:1,2014-11-03T18:30:00Z,28.9818,-94.9186,4.0,6.263880586,157.5703747,8.08,'11111222,11111222,11111222' 
TABS,ioos:station:wmo:42043:1,2014-11-03T19:00:00Z,28.9818,-94.9186,4.0,6.665320697,154.7808448,8.35,'11111222,11111222,11111222' 
TABS,ioos:station:wmo:42043:1,2014-11-03T19:30:00Z,28.9818,-94.9186,4.0,6.384958888,149.2981485,8.0,'11111222,11111222,11111222' 
TABS,ioos:station:wmo:42043:1,2014-11-03T20:00:00Z,28.9818,-94.9186,4.0,6.43547978,153.7139333,8.76,'11111222,11111222,11111222' 
TABS,ioos:station:wmo:42043:1,2014-11-03T20:30:00Z,28.9818,-94.9186,4.0,6.291486311,155.3905011,8.29,'11111222,11111222,11111222' 
TABS,ioos:station:wmo:42043:1,2014-11-03T21:00:00Z,28.9818,-94.9186,4.0,6.155233546,149.4356258,7.94,'11111222,11111222,11111222' 
TABS,ioos:station:wmo:42043:1,2014-11-03T21:30:00Z,28.9818,-94.9186,4.0,7.285341447,152.9779915,9.03,'11111222,11111222,11111222' 
TABS,ioos:station:wmo:42043:1,2014-11-03T22:00:00Z,28.9818,-94.9186,4.0,6.685656288,149.8302069,9.08,'11111222,11111222,11111222' 
TABS,ioos:station:wmo:42043:1,2014-11-03T22:30:00Z,28.9818,-94.9186,4.0,7.766517881,147.0877577,9.72,'11111222,11111222,11111222' 
TABS,ioos:station:wmo:42043:1,2014-11-03T23:00:00Z,28.9818,-94.9186,4.0,7.68078772,143.9509837,9.9,'11111222,11111222,11111222' 
TABS,ioos:station:wmo:42043:1,2014-11-03T23:30:00Z,28.9818,-94.9186,4.0,8.139097002,145.1582151,11.05,'11111222,11111222,11111222' 
TABS,ioos:station:wmo:42043:1,2014-11-04T00:00:00Z,28.9818,-94.9186,4.0,7.847706671,151.7044657,9.84,'11111222,11111222,11111222' 
TABS,ioos:station:wmo:42043:1,2014-11-04T00:30:00Z,28.9818,-94.9186,4.0,7.767554313,149.6057953,9.89,'11111222,11111222,11111222' 
TABS,ioos:station:wmo:42043:1,2014-11-04T01:00:00Z,28.9818,-94.9186,4.0,8.10881619,152.6136082,9.89,'11111222,11111222,11111222' 
TABS,ioos:station:wmo:42043:1,2014-11-04T01:30:00Z,28.9818,-94.9186,4.0,7.881148393,148.226087,10.34,'11111222,11111222,11111222' 
TABS,ioos:station:wmo:42043:1,2014-11-04T02:00:00Z,28.9818,-94.9186,4.0,8.616872983,147.6565875,10.96,'11111222,11111222,11111222' 
TABS,ioos:station:wmo:42043:1,2014-11-04T02:30:00Z,28.9818,-94.9186,4.0,8.545156523,146.3102217,10.58,'11111222,11111222,11111222' 
TABS,ioos:station:wmo:42043:1,2014-11-04T03:00:00Z,28.9818,-94.9186,4.0,7.537055128,141.0318162,9.54,'11111222,11111222,11111222' 
TABS,ioos:station:wmo:42043:1,2014-11-04T03:30:00Z,28.9818,-94.9186,4.0,7.198090024,143.4169545,9.13,'11111222,11111222,11111222' 
TABS,ioos:station:wmo:42043:1,2014-11-04T04:00:00Z,28.9818,-94.9186,4.0,7.317137418,154.2406695,9.48,'11111222,11111222,11111222' 
TABS,ioos:station:wmo:42043:1,2014-11-04T04:30:00Z,28.9818,-94.9186,4.0,7.230615465,149.498578,9.5,'11111222,11111222,11111222' 
TABS,ioos:station:wmo:42043:1,2014-11-04T05:00:00Z,28.9818,-94.9186,4.0,7.594162232,154.076312,9.78,'11111222,11111222,11111222' 
TABS,ioos:station:wmo:42043:1,2014-11-04T05:30:00Z,28.9818,-94.9186,4.0,8.172667863,158.6154455,10.68,'11111222,11111222,11111222' 
TABS,ioos:station:wmo:42043:1,2014-11-04T06:00:00Z,28.9818,-94.9186,4.0,8.627409808,156.1389231,11.89,'11111222,11111222,11111222' 
TABS,ioos:station:wmo:42043:1,2014-11-04T06:30:00Z,28.9818,-94.9186,4.0,8.44462551,157.2916732,10.81,'11111222,11111222,11111222' 
TABS,ioos:station:wmo:42043:1,2014-11-04T07:00:00Z,28.9818,-94.9186,4.0,8.32315445,159.9759816,10.82,'11111222,11111222,11111222' 
TABS,ioos:station:wmo:42043:1,2014-11-04T07:30:00Z,28.9818,-94.9186,4.0,8.276357895,156.5016997,10.62,'11111222,11111222,11111222' 
TABS,ioos:station:wmo:42043:1,2014-11-04T08:00:00Z,28.9818,-94.9186,4.0,8.185627649,158.5757916,10.41,'11111222,11111222,11111222' 
TABS,ioos:station:wmo:42043:1,2014-11-04T08:30:00Z,28.9818,-94.9186,4.0,7.643068755,153.8375248,9.62,'11111222,11111222,11111222' 
TABS,ioos:station:wmo:42043:1,2014-11-04T09:00:00Z,28.9818,-94.9186,4.0,7.468795084,160.0368129,9.16,'11111222,11111222,11111222' 
TABS,ioos:station:wmo:42043:1,2014-11-04T09:30:00Z,28.9818,-94.9186,4.0,7.601401187,163.0194387,10.0,'11111222,11111222,11111222' 
TABS,ioos:station:wmo:42043:1,2014-11-04T10:00:00Z,28.9818,-94.9186,4.0,8.143617132,162.3440326,10.52,'11111222,11111222,11111222' 
TABS,ioos:station:wmo:42043:1,2014-11-04T10:30:00Z,28.9818,-94.9186,4.0,7.558002382,156.8613986,9.8,'11111222,11111222,11111222' 
TABS,ioos:station:wmo:42043:1,2014-11-04T11:00:00Z,28.9818,-94.9186,4.0,7.746153884,157.3747087,10.19,'11111222,11111222,11111222' 
TABS,ioos:station:wmo:42043:1,2014-11-04T11:30:00Z,28.9818,-94.9186,4.0,7.068557137,162.4624787,8.94,'11111222,11111222,11111222' 
TABS,ioos:station:wmo:42043:1,2014-11-04T12:00:00Z,28.9818,-94.9186,4.0,7.010827341,161.7978974,8.99,'11111222,11111222,11111222' 
TABS,ioos:station:wmo:42043:1,2014-11-04T12:30:00Z,28.9818,-94.9186,4.0,7.528140541,158.4108477,9.37,'11111222,11111222,11111222' 
TABS,ioos:station:wmo:42043:1,2014-11-04T13:00:00Z,28.9818,-94.9186,4.0,7.466257429,159.8663557,9.5,'11111222,11111222,11111222' 
TABS,ioos:station:wmo:42043:1,2014-11-04T13:30:00Z,28.9818,-94.9186,4.0,6.918590897,157.0300291,8.86,'11111222,11111222,11111222' 
TABS,ioos:station:wmo:42043:1,2014-11-04T14:00:00Z,28.9818,-94.9186,4.0,7.043479254,158.4254352,9.31,'11111222,11111222,11111222' 
TABS,ioos:station:wmo:42043:1,2014-11-04T14:30:00Z,28.9818,-94.9186,4.0,7.021823125,154.1650628,9.01,'11111222,11111222,11111222' 
TABS,ioos:station:wmo:42043:1,2014-11-04T15:00:00Z,28.9818,-94.9186,4.0,6.159902597,150.8553312,7.82,'11111222,11111222,11111222' 
TABS,ioos:station:wmo:42043:1,2014-11-04T15:30:00Z,28.9818,-94.9186,4.0,6.30239637,154.5330164,8.5,'11111222,11111222,11111222' 
TABS,ioos:station:wmo:42043:1,2014-11-04T16:00:00Z,28.9818,-94.9186,4.0,6.217716623,152.1988167,8.29,'11111222,11111222,11111222' 
TABS,ioos:station:wmo:42043:1,2014-11-04T16:30:00Z,28.9818,-94.9186,4.0,6.016061835,152.3703692,8.17,'11111222,11111222,11111222' 
TABS,ioos:station:wmo:42043:1,2014-11-04T17:00:00Z,28.9818,-94.9186,4.0,6.021768843,151.8606262,7.74,'11111222,11111222,11111222' 
TABS,ioos:station:wmo:42043:1,2014-11-04T17:30:00Z,28.9818,-94.9186,4.0,6.844742508,148.5627821,8.75,'11111222,11111222,11111222' 
TABS,ioos:station:wmo:42043:1,2014-11-04T18:00:00Z,28.9818,-94.9186,4.0,6.873848995,153.8452678,8.47,'11111222,11111222,11111222' 
TABS,ioos:station:wmo:42043:1,2014-11-04T18:30:00Z,28.9818,-94.9186,4.0,5.9347283,153.9101556,7.74,'11111222,11111222,11111222' 